�N����,����,�~����,�C��,���x,�C��,����,���ϕ���,�ő�u�ԕ���,�ő厞����,���˗�,�I�_���x,�n�����x,�ő啗���N��,DTYPE
"20/10/19","00:10",0.0,13.2,89.1,1016.8,323.8,3.1,5.2,334.5,0.00,11.5,16.7,"00:01:06",1
"20/10/19","00:20",0.0,13.1,89.0,1017.1,322.4,3.0,4.2,317.0,0.00,11.4,16.8,"00:10:08",1
"20/10/19","00:30",0.0,13.0,89.2,1016.8,328.2,3.0,4.9,341.6,0.00,11.3,16.7,"00:29:12",1
"20/10/19","00:40",0.0,12.8,89.2,1016.8,328.8,2.6,4.1,338.6,0.00,11.1,16.7,"00:35:08",1
"20/10/19","00:50",0.0,12.8,89.5,1017.1,325.8,3.1,4.0,328.9,0.00,11.2,16.7,"00:46:06",1
"20/10/19","01:00",0.0,12.7,89.7,1017.3,329.7,3.2,4.5,341.2,0.00,11.1,16.6,"00:54:38",1
"20/10/19","01:10",0.0,12.5,89.9,1017.3,333.2,1.7,3.1,328.1,0.00,10.9,16.7,"01:01:20",1
"20/10/19","01:20",0.0,12.1,90.1,1017.3,322.2,1.3,2.9,322.9,0.00,10.6,16.6,"01:15:20",1
"20/10/19","01:30",0.0,12.0,90.6,1017.1,318.5,2.1,3.2,316.3,0.00,10.6,16.5,"01:25:46",1
"20/10/19","01:40",0.0,12.1,90.9,1017.1,326.7,2.2,4.4,343.2,0.00,10.7,16.5,"01:35:02",1
"20/10/19","01:50",0.0,12.0,91.3,1017.1,318.7,1.7,3.6,339.9,0.00,10.7,16.4,"01:45:38",1
"20/10/19","02:00",0.0,12.0,91.6,1017.1,330.9,1.8,3.6,341.2,0.00,10.7,16.3,"01:54:16",1
"20/10/19","02:10",0.0,12.0,91.8,1017.3,335.2,2.0,3.4,346.0,0.00,10.7,16.4,"02:07:14",1
"20/10/19","02:20",0.0,12.1,92.1,1016.8,330.8,2.3,4.9,347.7,0.00,10.9,16.3,"02:16:08",1
"20/10/19","02:30",0.0,12.1,92.3,1017.1,331.6,3.0,5.1,340.0,0.00,10.9,16.5,"02:27:16",1
"20/10/19","02:40",0.0,12.0,92.5,1016.8,331.7,2.8,5.0,331.9,0.00,10.9,16.4,"02:32:06",1
"20/10/19","02:50",0.0,12.0,92.7,1017.1,327.6,2.8,4.5,338.5,0.00,10.9,16.5,"02:46:28",1
"20/10/19","03:00",0.0,12.0,92.8,1017.1,333.0,2.1,4.2,327.4,0.00,10.9,16.3,"02:50:08",1
"20/10/19","03:10",0.0,11.8,93.0,1017.1,319.1,1.5,2.7,321.5,0.00,10.7,16.2,"03:09:58",1
"20/10/19","03:20",0.0,11.8,93.2,1017.1,324.8,2.0,2.8,332.5,0.00,10.8,16.2,"03:18:48",1
"20/10/19","03:30",0.0,11.9,93.4,1017.1,332.0,2.1,4.2,307.8,0.00,10.9,16.3,"03:29:46",1
"20/10/19","03:40",0.0,12.1,93.4,1017.1,316.4,2.3,3.6,327.0,0.00,11.1,16.2,"03:31:34",1
"20/10/19","03:50",0.0,12.0,93.5,1016.6,326.3,2.2,3.6,340.4,0.00,11.0,16.2,"03:48:58",1
"20/10/19","04:00",0.0,12.1,93.5,1016.6,325.5,2.3,4.0,333.3,0.00,11.1,16.2,"03:53:26",1
"20/10/19","04:10",0.0,12.1,93.6,1016.6,323.7,2.2,3.6,336.6,0.00,11.1,16.3,"04:07:04",1
"20/10/19","04:20",0.0,12.2,93.6,1016.6,332.7,2.7,4.8,322.6,0.00,11.2,16.2,"04:11:52",1
"20/10/19","04:30",0.0,12.2,93.7,1016.8,317.3,2.6,4.5,331.4,0.00,11.3,16.1,"04:28:04",1
"20/10/19","04:40",0.0,12.2,93.7,1017.3,316.0,1.6,3.2,334.1,0.00,11.3,16.1,"04:33:08",1
"20/10/19","04:50",0.0,12.3,93.7,1017.3,322.1,1.8,3.4,312.7,0.00,11.4,16.2,"04:40:18",1
"20/10/19","05:00",0.0,12.2,93.7,1017.8,330.9,1.7,3.7,338.4,0.00,11.3,16.2,"04:58:12",1
"20/10/19","05:10",0.0,12.4,93.8,1018.0,280.6,1.2,4.1,324.2,0.00,11.5,16.3,"05:00:58",1
"20/10/19","05:20",0.0,12.4,93.8,1017.8,307.9,1.1,2.1,324.9,0.00,11.5,16.0,"05:19:06",1
"20/10/19","05:30",0.0,12.4,93.8,1017.8,332.5,1.7,2.8,327.5,0.00,11.5,16.1,"05:27:24",1
"20/10/19","05:40",0.0,12.4,93.8,1017.5,316.7,1.8,3.1,324.6,0.00,11.5,16.3,"05:38:42",1
"20/10/19","05:50",0.0,12.4,93.7,1017.8,317.0,1.8,4.0,325.2,0.00,11.5,16.2,"05:41:56",1
"20/10/19","06:00",0.0,12.4,93.8,1017.5,298.3,1.6,3.4,306.6,0.00,11.5,16.0,"05:58:00",1
"20/10/19","06:10",0.0,12.5,93.8,1017.5,328.5,2.2,3.5,346.4,0.00,11.6,16.5,"06:00:18",1
"20/10/19","06:20",0.0,12.5,93.8,1017.3,316.0,1.6,2.6,319.0,0.00,11.6,16.1,"06:13:32",1
"20/10/19","06:30",0.0,12.5,93.8,1017.5,309.6,0.8,1.6,332.0,0.00,11.6,16.2,"06:21:44",1
"20/10/19","06:40",0.0,12.5,93.8,1017.5,311.1,1.2,1.9,317.8,0.00,11.6,16.1,"06:34:12",1
"20/10/19","06:50",0.0,12.6,93.8,1017.8,318.1,0.5,1.3,327.0,0.00,11.7,16.4,"06:40:24",1
"20/10/19","07:00",0.0,12.6,93.8,1018.2,307.6,0.7,1.2,340.7,0.00,11.7,16.4,"06:50:10",1
"20/10/19","07:10",0.0,12.5,93.8,1017.8,307.9,0.7,1.4,315.8,0.00,11.6,16.3,"07:08:30",1
"20/10/19","07:20",0.0,12.6,93.9,1018.0,324.8,0.3,1.1,308.1,0.01,11.7,16.4,"07:12:26",1
"20/10/19","07:30",0.0,12.9,94.0,1017.8,283.6,1.0,1.7,238.3,0.02,12.0,16.4,"07:22:42",1
"20/10/19","07:40",0.0,13.1,93.9,1017.5,335.6,0.8,1.7,321.0,0.02,12.2,16.4,"07:38:48",1
"20/10/19","07:50",0.0,13.2,94.0,1017.5,276.0,0.6,1.0,299.4,0.03,12.3,16.3,"07:40:32",1
"20/10/19","08:00",0.0,13.3,93.9,1017.5,95.5,0.2,0.8,101.2,0.02,12.4,16.5,"07:57:44",1
"20/10/19","08:10",0.0,13.4,93.8,1018.0,250.9,0.8,1.4,235.5,0.02,12.5,16.2,"08:05:28",1
"20/10/19","08:20",0.0,13.5,93.8,1018.5,319.3,1.2,2.1,339.9,0.01,12.6,16.4,"08:16:08",1
"20/10/19","08:30",0.0,13.3,93.6,1018.5,325.8,1.6,3.4,319.3,0.01,12.3,16.4,"08:27:30",1
"20/10/19","08:40",0.0,13.4,93.6,1019.2,301.9,1.7,3.2,330.2,0.01,12.4,16.4,"08:31:52",1
"20/10/19","08:50",0.0,13.4,93.5,1019.4,319.5,1.5,2.1,327.0,0.00,12.4,16.5,"08:46:40",1
"20/10/19","09:00",0.0,13.4,93.3,1018.7,313.4,1.5,2.8,326.0,0.00,12.4,16.5,"08:55:04",1
"20/10/19","09:10",0.0,13.5,93.1,1018.7,313.9,0.8,1.6,345.9,0.01,12.4,16.5,"09:00:02",1
"20/10/19","09:20",0.0,13.7,93.1,1018.2,308.6,1.0,1.6,332.8,0.02,12.6,16.5,"09:12:26",1
"20/10/19","09:30",0.0,13.8,92.8,1019.2,266.8,0.5,1.1,286.6,0.01,12.7,16.5,"09:27:12",1
"20/10/19","09:40",0.0,13.6,92.8,1019.4,264.8,1.2,1.7,270.6,0.01,12.5,16.7,"09:39:08",1
"20/10/19","09:50",0.0,13.6,92.7,1019.2,287.6,1.0,1.6,301.5,0.01,12.5,16.3,"09:42:16",1
"20/10/19","10:00",0.0,13.6,92.7,1019.0,317.9,1.8,2.7,313.5,0.01,12.5,16.4,"09:55:50",1
"20/10/19","10:10",0.0,13.6,92.6,1018.7,306.1,1.1,1.9,308.0,0.02,12.5,16.3,"10:01:40",1
"20/10/19","10:20",0.0,13.9,92.7,1018.7,298.4,0.7,1.8,340.6,0.04,12.8,16.5,"10:10:16",1
"20/10/19","10:30",0.0,14.1,92.5,1019.0,285.2,1.0,2.2,319.9,0.05,12.9,16.8,"10:26:16",1
"20/10/19","10:40",0.0,14.1,92.4,1019.2,295.2,1.6,2.5,329.1,0.06,12.9,16.7,"10:39:04",1
"20/10/19","10:50",0.0,14.1,92.1,1019.0,289.3,1.2,2.2,333.0,0.05,12.9,16.7,"10:40:08",1
"20/10/19","11:00",0.0,14.3,92.0,1018.7,284.7,1.1,1.8,305.2,0.05,13.1,16.7,"10:57:28",1
"20/10/19","11:10",0.0,14.3,91.8,1018.7,312.9,1.2,2.1,344.3,0.04,13.0,16.9,"11:07:04",1
"20/10/19","11:20",0.0,14.4,91.8,1018.5,274.8,0.8,2.0,321.1,0.04,13.1,16.8,"11:10:24",1
"20/10/19","11:30",0.0,14.5,91.6,1018.0,300.1,1.3,2.0,327.4,0.06,13.2,16.8,"11:24:08",1
"20/10/19","11:40",0.0,14.7,91.5,1017.5,295.3,0.8,1.3,306.0,0.05,13.4,17.0,"11:32:48",1
"20/10/19","11:50",0.0,14.8,91.1,1016.6,262.0,0.8,1.3,292.3,0.09,13.4,17.0,"11:40:40",1
"20/10/19","12:00",0.0,15.1,90.7,1016.8,276.8,0.8,1.6,313.8,0.09,13.6,16.9,"11:51:36",1
"20/10/19","12:10",0.0,14.9,90.5,1017.1,309.1,1.6,2.6,338.8,0.07,13.4,17.1,"12:07:04",1
"20/10/19","12:20",0.0,15.0,90.2,1017.3,295.2,1.2,2.4,342.3,0.08,13.4,17.0,"12:14:08",1
"20/10/19","12:30",0.0,15.2,90.0,1017.3,307.1,1.6,3.3,342.6,0.10,13.6,16.9,"12:25:36",1
"20/10/19","12:40",0.0,15.6,89.3,1016.6,326.1,2.1,3.4,345.6,0.12,13.9,17.2,"12:30:24",1
"20/10/19","12:50",0.0,16.0,88.5,1016.6,324.5,1.8,2.7,337.7,0.11,14.1,17.0,"12:46:08",1
"20/10/19","13:00",0.0,16.1,87.3,1016.4,289.5,1.1,1.8,327.3,0.05,14.0,17.4,"12:50:48",1
"20/10/19","13:10",0.0,16.0,86.7,1017.1,250.6,1.2,2.0,230.6,0.04,13.8,17.3,"13:09:24",1
"20/10/19","13:20",0.0,16.1,86.5,1016.8,270.1,0.5,1.6,222.0,0.07,13.9,17.4,"13:10:32",1
"20/10/19","13:30",0.0,16.0,86.0,1016.6,249.4,0.7,1.8,229.2,0.07,13.7,17.5,"13:28:16",1
"20/10/19","13:40",0.0,16.1,85.6,1016.6,235.0,1.0,1.7,227.9,0.08,13.7,17.4,"13:33:04",1
"20/10/19","13:50",0.0,16.1,85.6,1016.4,218.1,0.3,1.3,232.4,0.06,13.7,17.4,"13:40:32",1
"20/10/19","14:00",0.0,16.3,85.4,1016.8,284.1,0.6,1.1,314.4,0.06,13.9,17.6,"13:59:20",1
"20/10/19","14:10",0.0,16.5,85.0,1016.8,283.9,0.3,0.9,302.6,0.07,14.0,17.5,"14:00:16",1
"20/10/19","14:20",0.0,16.6,84.6,1016.8,288.2,0.3,1.0,83.0,0.08,14.0,17.6,"14:17:28",1
"20/10/19","14:30",0.0,16.7,84.3,1016.6,111.5,0.3,1.3,102.2,0.09,14.1,17.5,"14:20:24",1
"20/10/19","14:40",0.0,16.8,83.9,1016.4,344.9,0.3,0.8,90.1,0.08,14.1,17.7,"14:36:00",1
"20/10/19","14:50",0.0,16.8,83.8,1016.6,355.3,0.3,1.2,95.3,0.08,14.1,17.7,"14:46:16",1
"20/10/19","15:00",0.0,16.7,83.7,1016.4,184.4,0.2,1.0,157.4,0.07,14.0,17.8,"14:56:16",1
"20/10/19","15:10",0.0,16.7,83.7,1016.6,146.4,0.3,1.1,156.5,0.06,14.0,17.9,"15:07:44",1
"20/10/19","15:20",0.0,16.5,84.1,1016.8,176.8,0.3,0.9,107.5,0.06,13.8,17.7,"15:19:36",1
"20/10/19","15:30",0.0,16.6,84.3,1016.4,95.8,0.3,1.1,102.0,0.07,14.0,17.8,"15:29:44",1
"20/10/19","15:40",0.0,16.7,84.3,1016.6,257.8,0.3,1.1,105.1,0.08,14.1,17.7,"15:30:16",1
"20/10/19","15:50",0.0,16.6,84.3,1016.4,302.4,0.3,1.0,106.5,0.05,14.0,17.9,"15:40:24",1
"20/10/19","16:00",0.0,16.7,84.2,1016.4,278.2,0.1,0.6,130.6,0.04,14.1,17.9,"15:50:24",1
"20/10/19","16:10",0.0,16.6,84.3,1015.9,206.0,0.2,0.8,119.3,0.05,14.0,17.8,"16:02:08",1
"20/10/19","16:20",0.0,16.6,84.3,1016.1,322.6,1.0,1.7,333.1,0.05,14.0,17.8,"16:15:12",1
"20/10/19","16:30",0.0,16.7,84.0,1016.4,279.9,0.6,0.9,296.8,0.03,14.0,17.9,"16:21:44",1
"20/10/19","16:40",0.0,16.7,84.0,1016.1,308.0,0.6,1.4,324.4,0.02,14.0,17.8,"16:37:44",1
"20/10/19","16:50",0.0,16.6,83.9,1016.1,278.5,0.7,1.3,239.4,0.01,13.9,17.9,"16:46:56",1
"20/10/19","17:00",0.0,16.4,84.0,1016.1,290.5,0.5,1.1,308.2,0.00,13.7,17.9,"16:58:16",1
"20/10/19","17:10",0.0,16.1,84.1,1016.1,309.9,0.2,0.8,319.7,0.00,13.5,17.9,"17:00:08",1
"20/10/19","17:20",0.0,16.0,84.8,1015.9,319.6,1.2,1.6,320.1,0.00,13.5,17.9,"17:17:04",1
"20/10/19","17:30",0.0,15.3,85.4,1016.4,301.7,0.7,1.3,324.9,0.00,12.9,17.7,"17:22:16",1
"20/10/19","17:40",0.0,15.2,86.2,1016.8,319.7,1.0,1.3,322.0,0.00,13.0,17.6,"17:30:56",1
"20/10/19","17:50",0.0,15.0,87.0,1016.8,323.8,1.2,1.9,326.3,0.00,12.9,17.8,"17:45:20",1
"20/10/19","18:00",0.0,14.6,87.6,1016.8,296.9,0.3,0.9,311.0,0.00,12.6,17.8,"17:50:16",1
"20/10/19","18:10",0.0,14.3,88.1,1016.8,302.7,0.8,1.1,341.7,0.00,12.4,17.7,"18:00:32",1
"20/10/19","18:20",0.0,14.2,88.5,1017.1,315.8,1.1,1.6,320.9,0.00,12.4,17.5,"18:17:04",1
"20/10/19","18:30",0.0,13.8,88.9,1017.1,289.4,0.8,1.0,297.5,0.00,12.0,17.4,"18:20:16",1
"20/10/19","18:40",0.0,13.6,89.3,1017.5,303.7,0.8,1.4,324.4,0.00,11.9,17.5,"18:36:10",1
"20/10/19","18:50",0.0,13.3,89.8,1017.8,288.4,0.8,1.4,320.3,0.00,11.7,17.3,"18:48:48",1
"20/10/19","19:00",0.0,13.2,90.1,1018.0,302.1,1.0,1.6,321.0,0.00,11.7,17.2,"18:51:06",1
"20/10/19","19:10",0.0,13.1,90.5,1017.8,298.3,1.0,1.3,318.7,0.00,11.6,17.2,"19:09:52",1
"20/10/19","19:20",0.0,13.1,90.7,1017.8,302.4,1.0,1.4,327.8,0.00,11.7,17.2,"19:10:52",1
"20/10/19","19:30",0.0,13.1,90.9,1018.0,288.3,0.7,1.1,275.2,0.00,11.7,17.2,"19:26:06",1
"20/10/19","19:40",0.0,13.1,91.1,1018.0,296.3,0.8,1.2,317.5,0.00,11.7,17.1,"19:37:58",1
"20/10/19","19:50",0.0,13.2,91.3,1018.2,316.9,0.8,1.2,292.3,0.00,11.9,16.9,"19:40:08",1
"20/10/19","20:00",0.0,13.2,91.6,1018.2,299.1,1.1,1.6,313.2,0.00,11.9,17.3,"19:58:16",1
"20/10/19","20:10",0.0,13.1,91.8,1018.5,285.0,1.0,1.7,314.9,0.00,11.8,17.1,"20:01:08",1
"20/10/19","20:20",0.0,13.1,91.9,1018.5,284.5,0.8,1.1,316.1,0.00,11.9,17.2,"20:19:20",1
"20/10/19","20:30",0.0,12.8,92.1,1018.5,287.6,0.7,1.1,322.6,0.00,11.6,17.1,"20:21:00",1
"20/10/19","20:40",0.0,12.6,92.4,1019.0,315.5,1.1,1.4,321.1,0.00,11.4,16.9,"20:31:02",1
"20/10/19","20:50",0.0,12.7,92.6,1019.0,298.1,0.7,1.2,296.4,0.00,11.6,16.9,"20:46:24",1
"20/10/19","21:00",0.0,12.8,92.9,1019.2,321.1,1.2,1.8,334.9,0.00,11.7,17.0,"20:56:22",1
"20/10/19","21:10",0.0,12.7,92.9,1019.0,305.8,1.1,1.4,321.7,0.00,11.6,17.0,"21:01:56",1
"20/10/19","21:20",0.0,12.5,93.1,1019.0,300.0,1.0,1.4,311.9,0.00,11.5,16.7,"21:15:48",1
"20/10/19","21:30",0.0,12.4,93.2,1019.2,293.5,1.0,1.3,315.1,0.00,11.4,16.9,"21:26:02",1
"20/10/19","21:40",0.0,12.2,93.4,1019.0,290.0,1.0,1.3,322.3,0.00,11.2,16.6,"21:39:46",1
"20/10/19","21:50",0.0,12.2,93.6,1019.0,306.6,1.1,1.4,317.8,0.00,11.2,16.7,"21:40:38",1
"20/10/19","22:00",0.0,12.4,93.7,1019.7,295.6,1.1,1.7,307.9,0.00,11.5,16.8,"21:59:18",1
"20/10/19","22:10",0.0,12.4,93.8,1019.2,282.7,0.7,1.7,311.5,0.00,11.5,16.6,"22:00:34",1
"20/10/19","22:20",0.0,12.3,93.9,1019.4,297.8,1.0,1.6,324.7,0.00,11.4,16.6,"22:15:14",1
"20/10/19","22:30",0.0,12.4,94.0,1019.4,294.4,1.0,1.3,318.2,0.00,11.5,16.7,"22:24:22",1
"20/10/19","22:40",0.0,12.6,94.2,1019.7,318.3,1.0,1.7,296.1,0.00,11.7,16.5,"22:39:30",1
"20/10/19","22:50",0.0,12.4,94.2,1019.7,292.6,1.1,2.5,307.6,0.00,11.5,16.5,"22:40:32",1
"20/10/19","23:00",0.0,12.2,94.3,1019.7,308.4,0.7,1.2,300.1,0.00,11.4,16.5,"22:58:42",1
"20/10/19","23:10",0.0,11.8,94.5,1019.4,295.5,0.7,1.3,319.5,0.00,11.0,16.4,"23:04:26",1
"20/10/19","23:20",0.0,11.6,94.6,1019.9,305.0,0.7,1.2,305.8,0.00,10.8,16.2,"23:14:40",1
"20/10/19","23:30",0.0,11.5,94.9,1019.7,319.8,1.3,1.8,323.2,0.00,10.8,16.4,"23:25:04",1
"20/10/19","23:40",0.0,11.3,94.9,1019.4,319.6,1.3,1.7,329.9,0.00,10.6,16.3,"23:30:08",1
"20/10/19","23:50",0.0,11.0,95.2,1019.2,303.1,0.8,1.7,324.3,0.00,10.3,16.3,"23:41:30",1
"20/10/19","24:00",0.0,10.7,95.2,1019.4,298.8,1.0,1.2,312.6,0.00,10.0,16.2,"23:51:44",1
